OPS 4682 DEB, 38393

Orbit data source: Space-Track

OPS 4682 DEB, 38393 is space debris in LEO originally from a launch on Sat, 03 Apr 1965 UTC launched from the Air Force Western Test Range (AFWTR). Debris objects in space refer to the collection of defunct objects orbiting the Earth. Examples of debris include non-operational satellites, rocket bodies, and fragments generated from explosions, collisions, or faulty payload assembly.

Loading next visibility...
Identifier
38393, 1965-027CW
Orbit
LEO
Country
Flag of USUS
Related business
Manufacturer
Unknown
Mission
Spacecraft
Bus & Motor
Unknown
Mass
Unknown
Launch date (UTC)
1965-04-03 (61 years ago)
Launch vehicle
Unknown
Launch site
Air Force Western Test Range (AFWTR)
Object type
Payload
Rocket body
Debris
Shape & HBR
Unknown shape, 0.1 m
Radar Cross Section
Medium (>0.1 m² and <1 m²)

Expand to show TLE details & history
Last TLE update: 1 day ago

TLE from 1 day ago
0 OPS 4682 DEB
1 38393U 65027CW  26234.69934964  .00000762  00000-0  25594-2 0  9995
2 38393  90.2586  18.3517 0026283 196.7005 163.3253 12.98468309634457
Epoch: 2026-08-22T16:47Z
TLE epoch observation values (Epoch: 2026-08-22T16:47:03.808Z)
Latitude
-0.00008°
Longitude
155.57983°
Altitude
1,290.235 km
Speed
7.202 km/s
True Right ascension
01h 13m 24s
True Declination
0° 00' 00"
Sunlit
Object was in full shadow at epoch
Visualization orbit readout
Latitude
Unknown
Longitude
Unknown
Altitude
Unknown
Speed
Unknown
Apparent Right ascension
Unknown
Apparent Declination
Unknown
Sunlit
N/A
Visualization observer readout
Local Sidereal Time
19:33:49
Azimuth
Unknown
Elevation
Unknown
Doppler factor
Unknown
Orbital elements
Apogee altitude
1,285.312 km
Perigee altitude
1,245.134 km
Semi-major axis
7,643.36 km
Eccentricity
0.00263
Inclination
90.2586°
RAAN
18.3517°
Arg. of periapsis
196.7005°
True anomaly
163.41145°
Mean anomaly
163.3253°
Eccentric anomaly
163.3684°
Mean motion
3.24801 °/min
Orbital period
110.84 mins
BSTAR
0.0025594
Loading maneuver chart data...
Computing Atmospheric mass density...
Loading historical data...
Loading historical data...
Loading historical data...
Loading historical data...
Loading historical data...
Loading historical data...
Loading historical data...

Documentation

Showing up to 5 results
|